Погода в Сыктывкаре

Россия / Республика Коми     61°40′07″N   50°50′11″E
темп.,
°C
ветер,
м/с
пор.,
м/с
влажн.,
%
обл.,
%
осадки,
мм/ч
давл.,
гПа
погр.,
м
26 февраля, пт
пт2600:00−20ююв3995100 0.0 1020302
03:00−21ююв3895100 0.0 1020320
06:00−21ююв3995100 0.0 1019344
09:00−20ююв4893100 0.0 1018382
12:00−17ююв4889100 0.0 1016515
15:00−16ююв4990100 0.0 1014626
18:00−18юв41293100 0.0 1012593
21:00−19юв41294100 0.1 1012528
27 февраля, сб
сб2700:00−20юв31095100 0.0 1010400
03:00−22вюв399691 0.0 1011306
06:00−22вюв399771 0.0 1010261
09:00−19вюв379371 0.0 1011378
12:00−15вюв358999 0.0 1011500
15:00−12в2589100 0.1 1011626
18:00−16всв2397100 0.0 101147
21:00−19в229673 0.1 101320
28 февраля, вс
вс2800:00−20в12980 0.0 101320
03:00−21в1210027 0.0 101520
06:00−22вюв1210091 0.0 101520
09:00−19юв129480 0.0 1016147
12:00−14ююв11830 0.0 1016340
15:00−13ююв018522 0.0 1016334
18:00−19ссз009421 0.0 101720
21:00−19юз119510 0.0 101920
1 марта, пн
пн100:00−20зюз12970 0.0 101920
03:00−20зюз23985 0.0 102025
06:00−20юз239946 0.0 101958
09:00−16юз369455 0.0 1018226
12:00−11юз489280 0.0 1016379
15:00−9ююз5109290 0.1 1012472
18:00−9юз51293100 0.1 1008625
21:00−7юз61394100 1.4 1004701
2 марта, вт
вт200:00−5юз51395100 1.3 1001684
03:00−3зюз41094100 2.6 999555
06:00−2з31095100 0.1 998671
09:00−2з4893100 0.3 998626
12:000з368897 0.1 998900
15:00−1зюз379199 0.4 997653
18:00−3зюз389599 0.1 996257
21:00−4з3996100 0.4 996314